When you browse on this site, cookies collect data to enhance your experience and personalize the content and advertising you see.
Visit our Privacy Policy to learn more. By continuing to use the site, you agree to this use of cookies and data.
EN

Hourly Weather Volnovaha

Today, 15 August, Saturday

Time Temperature Precipitation Wind Pressure Humidity
00:00 +13°C° 0 mm 3 mps 737 mmHg 67%
01:00 +12°C° 0 mm 3 mps 737 mmHg 72%
02:00 +12°C° 0 mm 3 mps 737 mmHg 76%
03:00 +12°C° 0 mm 3 mps 738 mmHg 79%
04:00 +11°C° 0 mm 3 mps 738 mmHg 81%
05:00 +11°C° 0 mm 3 mps 738 mmHg 83%
06:00 +13°C° 0 mm 3 mps 738 mmHg 73%
07:00 +17°C° 0 mm 3 mps 738 mmHg 64%
08:00 +19°C° 0 mm 4 mps 739 mmHg 54%
09:00 +20°C° 0 mm 4 mps 739 mmHg 48%
10:00 +21°C° 0 mm 4 mps 739 mmHg 43%
11:00 +22°C° 0 mm 4 mps 739 mmHg 38%
12:00 +22°C° 0 mm 4 mps 739 mmHg 35%
13:00 +23°C° 0 mm 4 mps 739 mmHg 33%
14:00 +23°C° 0 mm 4 mps 739 mmHg 31%
15:00 +23°C° 0 mm 4 mps 739 mmHg 32%
16:00 +22°C° 0 mm 4 mps 739 mmHg 33%
17:00 +22°C° 0 mm 4 mps 739 mmHg 34%
18:00 +20°C° 0 mm 4 mps 739 mmHg 39%
19:00 +18°C° 0 mm 3 mps 739 mmHg 43%
20:00 +16°C° 0 mm 3 mps 739 mmHg 47%
21:00 +16°C° 0 mm 3 mps 739 mmHg 49%
22:00 +15°C° 0 mm 2 mps 739 mmHg 51%
23:00 +15°C° 0 mm 2 mps 739 mmHg 52%

Tomorrow, 16 August, Sunday

Time Temperature Precipitation Wind Pressure Humidity
00:00 +14°C° 0 mm 2 mps 739 mmHg 55%
01:00 +14°C° 0 mm 2 mps 739 mmHg 57%
02:00 +13°C° 0 mm 2 mps 739 mmHg 59%
03:00 +13°C° 0 mm 2 mps 738 mmHg 61%
04:00 +13°C° 0 mm 1 mps 738 mmHg 62%
05:00 +12°C° 0 mm 1 mps 738 mmHg 64%
06:00 +15°C° 0 mm 1 mps 739 mmHg 57%
07:00 +17°C° 0 mm 2 mps 739 mmHg 51%
08:00 +19°C° 0 mm 2 mps 739 mmHg 45%
09:00 +20°C° 0 mm 2 mps 739 mmHg 41%
10:00 +21°C° 0 mm 2 mps 739 mmHg 38%
11:00 +24°C° 0 mm 2 mps 739 mmHg 34%
12:00 +24°C° 0 mm 3 mps 739 mmHg 33%
13:00 +25°C° 0 mm 3 mps 739 mmHg 31%
14:00 +26°C° 0 mm 3 mps 739 mmHg 30%
15:00 +25°C° 0 mm 3 mps 739 mmHg 31%
16:00 +25°C° 0 mm 3 mps 739 mmHg 33%
17:00 +25°C° 0 mm 3 mps 738 mmHg 34%
18:00 +22°C° 0 mm 3 mps 738 mmHg 39%
19:00 +20°C° 0 mm 2 mps 739 mmHg 44%
20:00 +18°C° 0 mm 2 mps 739 mmHg 48%
21:00 +18°C° 0 mm 1 mps 739 mmHg 50%
22:00 +18°C° 0 mm 1 mps 739 mmHg 52%
23:00 +16°C° 0 mm 1 mps 739 mmHg 54%

Day after tomorrow, 17 August, Monday

Time Temperature Precipitation Wind Pressure Humidity
00:00 +16°C° 0 mm 1 mps 739 mmHg 54%
01:00 +16°C° 0 mm 1 mps 739 mmHg 55%
02:00 +16°C° 0 mm 1 mps 739 mmHg 55%
03:00 +16°C° 0 mm 1 mps 739 mmHg 55%
04:00 +18°C° 0 mm 1 mps 739 mmHg 55%
05:00 +17°C° 0 mm 2 mps 739 mmHg 54%
06:00 +18°C° 0 mm 2 mps 739 mmHg 52%
07:00 +20°C° 0 mm 2 mps 739 mmHg 49%
08:00 +21°C° 0 mm 2 mps 739 mmHg 46%
09:00 +23°C° 0 mm 2 mps 739 mmHg 44%
10:00 +25°C° 0 mm 2 mps 739 mmHg 42%
11:00 +26°C° 0 mm 2 mps 739 mmHg 40%
12:00 +27°C° 0 mm 2 mps 739 mmHg 37%
13:00 +28°C° 0 mm 2 mps 739 mmHg 35%
14:00 +28°C° 0 mm 2 mps 738 mmHg 32%
15:00 +28°C° 0 mm 2 mps 738 mmHg 33%
16:00 +28°C° 0 mm 2 mps 738 mmHg 34%
17:00 +28°C° 0 mm 2 mps 738 mmHg 34%
18:00 +26°C° 0 mm 2 mps 738 mmHg 40%
19:00 +24°C° 0 mm 2 mps 738 mmHg 45%
20:00 +21°C° 0 mm 2 mps 738 mmHg 51%
21:00 +21°C° 0 mm 1 mps 738 mmHg 53%
22:00 +20°C° 0 mm 1 mps 738 mmHg 56%
23:00 +20°C° 0 mm 1 mps 738 mmHg 59%

18 August, Tuesday

Time Temperature Precipitation Wind Pressure Humidity
00:00 +20°C° 0 mm 1 mps 738 mmHg 59%
01:00 +20°C° 0 mm 1 mps 737 mmHg 59%
02:00 +19°C° 0 mm 1 mps 737 mmHg 58%
03:00 +19°C° 0 mm 1 mps 737 mmHg 59%
04:00 +19°C° 0 mm 1 mps 737 mmHg 60%
05:00 +19°C° 0 mm 1 mps 737 mmHg 61%
06:00 +21°C° 0 mm 1 mps 737 mmHg 54%
07:00 +24°C° 0 mm 1 mps 737 mmHg 48%
08:00 +26°C° 0 mm 1 mps 737 mmHg 41%
09:00 +27°C° 0 mm 1 mps 737 mmHg 38%
10:00 +29°C° 0 mm 1 mps 737 mmHg 35%
11:00 +30°C° 0 mm 1 mps 737 mmHg 32%
12:00 +31°C° 0 mm 1 mps 737 mmHg 31%
13:00 +31°C° 0 mm 1 mps 736 mmHg 30%
14:00 +31°C° 0 mm 1 mps 736 mmHg 28%
15:00 +31°C° 0 mm 1 mps 736 mmHg 30%
16:00 +30°C° 0 mm 2 mps 736 mmHg 31%
17:00 +30°C° 0 mm 2 mps 736 mmHg 32%
18:00 +28°C° 0 mm 2 mps 736 mmHg 37%
19:00 +26°C° 0 mm 2 mps 736 mmHg 42%
20:00 +24°C° 0 mm 2 mps 736 mmHg 47%
21:00 +24°C° 0 mm 2 mps 735 mmHg 47%
22:00 +24°C° 0 mm 2 mps 735 mmHg 48%
23:00 +23°C° 0 mm 2 mps 735 mmHg 49%

19 August, Wednesday

Time Temperature Precipitation Wind Pressure Humidity
00:00 +23°C° 0 mm 2 mps 735 mmHg 50%
01:00 +21°C° 0 mm 2 mps 735 mmHg 52%
02:00 +22°C° 0 mm 1 mps 735 mmHg 53%
03:00 +22°C° 0 mm 1 mps 735 mmHg 54%
04:00 +21°C° 0 mm 1 mps 735 mmHg 55%
05:00 +21°C° 0 mm 1 mps 735 mmHg 56%
06:00 +23°C° 0 mm 1 mps 735 mmHg 50%
07:00 +26°C° 0 mm 1 mps 735 mmHg 44%
08:00 +28°C° 0 mm 1 mps 736 mmHg 39%
09:00 +29°C° 0 mm 1 mps 736 mmHg 35%
10:00 +31°C° 0 mm 1 mps 736 mmHg 31%
11:00 +32°C° 0 mm 1 mps 736 mmHg 27%
12:00 +32°C° 0 mm 1 mps 735 mmHg 27%
13:00 +32°C° 0 mm 1 mps 735 mmHg 27%
14:00 +32°C° 0 mm 2 mps 735 mmHg 26%
15:00 +32°C° 0 mm 2 mps 735 mmHg 28%
16:00 +31°C° 0 mm 2 mps 735 mmHg 29%
17:00 +31°C° 0 mm 2 mps 735 mmHg 30%
18:00 +29°C° 0 mm 2 mps 735 mmHg 34%
19:00 +27°C° 0 mm 2 mps 735 mmHg 37%
20:00 +25°C° 0 mm 2 mps 735 mmHg 41%
21:00 +24°C° 0 mm 1 mps 734 mmHg 42%
22:00 +24°C° 0 mm 1 mps 734 mmHg 43%
23:00 +23°C° 0 mm 1 mps 734 mmHg 44%

20 August, Thursday

Time Temperature Precipitation Wind Pressure Humidity
00:00 +23°C° 0 mm 1 mps 734 mmHg 45%
01:00 +22°C° 0 mm 1 mps 734 mmHg 46%
02:00 +22°C° 0 mm 1 mps 734 mmHg 48%
03:00 +22°C° 0 mm 1 mps 734 mmHg 49%
04:00 +21°C° 0 mm 1 mps 734 mmHg 50%
05:00 +21°C° 0 mm 1 mps 734 mmHg 52%
06:00 +23°C° 0 mm 1 mps 734 mmHg 46%
07:00 +26°C° 0 mm 1 mps 734 mmHg 41%
08:00 +28°C° 0 mm 2 mps 734 mmHg 35%
09:00 +30°C° 0 mm 2 mps 734 mmHg 31%
10:00 +31°C° 0 mm 2 mps 734 mmHg 26%
11:00 +34°C° 0 mm 2 mps 734 mmHg 22%
12:00 +34°C° 0 mm 3 mps 734 mmHg 21%
13:00 +35°C° 0 mm 3 mps 734 mmHg 20%
14:00 +35°C° 0 mm 3 mps 733 mmHg 19%
15:00 +34°C° 0 mm 2 mps 733 mmHg 20%
16:00 +34°C° 0 mm 2 mps 733 mmHg 21%
17:00 +32°C° 0 mm 2 mps 733 mmHg 23%
18:00 +30°C° 0 mm 2 mps 733 mmHg 24%
19:00 +28°C° 0 mm 1 mps 733 mmHg 25%
20:00 +26°C° 0 mm 1 mps 732 mmHg 26%
21:00 +26°C° 0 mm 2 mps 732 mmHg 27%
22:00 +25°C° 0 mm 2 mps 732 mmHg 28%
23:00 +25°C° 0 mm 2 mps 732 mmHg 29%
Show more